Miscellaneous Local Product
Issued by NWS Hastings, NE

Home | Current Version | Previous Version | Text Only | Print | Product List | Glossary Off
Versions: 1 2 3 4 5 6 7 8 9 10 11 12 13 14 15 16 17 18 19 20 21 22 23 24 25 26 27 28 29 30 31 32 33 34 35 36 37 38 39 40 41 42 43 44 45 46 47 48 49 50

000
AXUS43 KGID 180802
MISGRI

GID CWA HOURLY WEATHER ROUNDUP
NATIONAL WEATHER SERVICE HASTINGS NE
200 AM CST THU DEC 18 2014

NOTE: "FAIR" INDICATES FEW OR NO CLOUDS BELOW 12,000 FEET WITH NO
SIGNIFICANT WEATHER AND/OR OBSTRUCTIONS TO VISIBILITY.

...SOUTH CENTRAL NEBRASKA...

CITY           SKY/WX    TMP DP  RH WIND       PRES   REMARKS
GRAND ISLAND   LGT SNOW  23  21  92 E5        30.18F FOG     WCI  17
HASTINGS       LGT SNOW  24  21  88 E3        30.15F FOG
KEARNEY        CLOUDY    23  19  86 E3        30.15S
ORD            CLOUDY    23  20  88 SE7       30.14F WCI  15
YORK           LGT SNOW  25 N/A N/A SE6       30.19F WCI  18
AURORA         LGT SNOW  24  23  96 E5        30.17F WCI  18
LEXINGTON      LGT SNOW  25  23  93 S3        30.12F
HOLDREGE       CLOUDY    24  21  88 SE3       30.13S
HEBRON         LGT SNOW  26  23  90 E3        30.18F

...NEBRASKA PANHANDLE...

CITY           SKY/WX    TMP DP  RH WIND       PRES   REMARKS
CHADRON        FOG       17  15  92 SW5       30.02S VSB 1/4 WCI  10
ALLIANCE       FOG       19  17  92 SW8       29.99F VSB 1/4 WCI   9
SCOTTSBLUFF    FOG       14  12  92 N5        30.01F VSB 1/4 WCI   6
SIDNEY         FOG       17  15  92 SW8       29.98F VSB 1   WCI   7

...WESTERN AND NORTH CENTRAL NEBRASKA...

CITY           SKY/WX    TMP DP  RH WIND       PRES   REMARKS
VALENTINE      CLOUDY    24  21  88 S9        30.07F WCI  14
AINSWORTH      CLOUDY    22  21  96 S3        30.08F
ONEILL         CLOUDY    21  19  93 CALM      30.16F
BROKEN BOW     CLOUDY    24  22  91 S7        30.10F FOG     WCI  16
IMPERIAL       CLOUDY    25  22  88 S8        30.06F FOG     WCI  16
NORTH PLATTE   CLOUDY    23  22  96 S6        30.08F FOG     WCI  16
MCCOOK         LGT SNOW  25  23  92 SE3       30.10F FOG

...EASTERN NEBRASKA...

CITY           SKY/WX    TMP DP  RH WIND       PRES   REMARKS
NORFOLK        CLOUDY    25  19  78 E6        30.19F WCI  18
SO SIOUX CITY  CLOUDY    26  19  74 SE7       30.25F WCI  18
TEKAMAH        CLOUDY    27  20  75 E6        30.25F WCI  20
COLUMBUS       CLOUDY    25  16  68 E6        30.22S WCI  18
ALBION         LGT SNOW  24  19  81 SE6       30.18F WCI  17
OMAHA EPPLEY   CLOUDY    28  21  75 E5        30.26S WCI  23
OFFUTT AFB     CLOUDY    28  21  74 E5        30.23F WCI  23
MILLARD        CLOUDY    29  20  70 CALM      30.23F
LINCOLN        CLOUDY    27  19  72 E5        30.23F WCI  22
NEBRASKA CITY  CLOUDY    28  21  74 CALM      30.22F
BEATRICE       CLOUDY    28  22  80 SE6       30.20F WCI  21
FALLS CITY     LGT SNOW  28  23  81 S5        30.24S WCI  23

...NORTHERN KANSAS...

CITY           SKY/WX    TMP DP  RH WIND       PRES   REMARKS
GOODLAND       CLOUDY    25  23  92 CALM      30.04F
HILL CITY      CLOUDY    26  24  92 E6        30.13F FOG     WCI  19
NORTON         CLOUDY    25  23  93 E3        30.11F FOG
PHILLIPSBURG   CLOUDY    28  28 100 CALM      30.16F
SMITH CENTER   LGT SNOW  23  21  93 E5        30.17S WCI  17
BELOIT         CLOUDY    27  25  93 CALM      30.18S
HAYS           CLOUDY    27  18  69 NE7       30.11F WCI  19
RUSSELL        LGT SNOW  26  25  96 NE5       30.13S FOG     WCI  20
CONCORDIA      HVY SNOW  25  24  96 E5        30.18S VSB 1/4 WCI  19
SALINA         LGT SNOW  29  27  92 NE5       30.18F FOG     WCI  24
TOPEKA         LGT SNOW  29  27  92 E5        30.23S FOG     WCI  24



USA.gov is the U.S. government's official web portal to all federal, state and local government web resources and services.